This is the latest recevied weather packets stored in our database for station/object WB0OCV. If no packets are shown the sender has not sent any weather packets the latest 10 day(s).
| Time | Temp. | Humidity | Pressure | Rain* | Wind** | Luminosity | Snow |
|---|---|---|---|---|---|---|---|
| 1778191707 | 14.44° C | 66% | 1007.9 hPa | 0 mm | - | 59 W/m² | - |
| 1778191406 | 15° C | 67% | 1007.8 hPa | 0 mm | - | 78 W/m² | - |
| 1778191102 | 15.56° C | 66% | 1007.7 hPa | 0 mm | - | 41 W/m² | - |
| 1778190799 | 16.11° C | 66% | 1007.5 hPa | 0 mm | - | 143 W/m² | - |
| 1778190496 | 16.11° C | 63% | 1007.5 hPa | 0 mm | - | 187 W/m² | - |
| 1778190194 | 16.11° C | 61% | 1007.6 hPa | 0 mm | - | 182 W/m² | - |
| 1778189888 | 16.67° C | 57% | 1007.5 hPa | 0 mm | - | 247 W/m² | - |
| 1778189586 | 17.22° C | 58% | 1007.5 hPa | 0 mm | - | 290 W/m² | - |
| 1778189282 | 17.22° C | 56% | 1007.5 hPa | 0 mm | - | 310 W/m² | - |
| 1778188978 | 17.78° C | 57% | 1007.5 hPa | 0 mm | - | 351 W/m² | - |
| 1778188675 | 17.78° C | 54% | 1007.6 hPa | 0 mm | - | 364 W/m² | - |
| 1778188371 | 17.22° C | 58% | 1007.4 hPa | 0 mm | - | 371 W/m² | - |
| 1778188068 | 17.22° C | 58% | 1007.4 hPa | 0 mm | - | 380 W/m² | - |
| 1778187765 | 17.22° C | 59% | 1007.4 hPa | 0 mm | - | 398 W/m² | - |
| 1778187462 | 17.78° C | 60% | 1007.6 hPa | 0 mm | - | 446 W/m² | - |
| 1778187159 | 17.78° C | 59% | 1007.7 hPa | 0 mm | - | 522 W/m² | - |
| 1778186855 | 17.22° C | 57% | 1007.6 hPa | 0 mm | - | 345 W/m² | - |
| 1778186553 | 16.67° C | 59% | 1007.4 hPa | 0 mm | - | 471 W/m² | - |
| 1778186250 | 16.67° C | 58% | 1007.5 hPa | 0 mm | - | 281 W/m² | - |
| 1778185948 | 17.78° C | 55% | 1007.4 hPa | 0 mm | - | 464 W/m² | - |
| 1778185644 | 17.78° C | 56% | 1007.5 hPa | 0 mm | - | 531 W/m² | - |
| 1778185340 | 17.78° C | 55% | 1007.5 hPa | 0 mm | - | 531 W/m² | - |
| 1778185035 | 17.22° C | 58% | 1007.3 hPa | 0 mm | - | 542 W/m² | - |
| 1778184732 | 17.22° C | 57% | 1007.4 hPa | 0 mm | - | 536 W/m² | - |
| 1778184428 | 17.22° C | 58% | 1007.6 hPa | 0 mm | - | 536 W/m² | - |
* Rain latest hour (hover to see other rain measurements)
** Current wind speed in m/s (hover to see current wind gust speed)